Toronto Pearson, Ontario

1:25 PM EDT on July 21, 2019 (GMT -0400)
Toronto-Pearson International

Weather History for CYYZ - May, 2019

Change the Weather History Date:

Sunday, May 26, 2019

  Actual Average Record
Temperature  
Mean Temperature 66 °F -  
Max Temperature 73 °F 73 °F 84 °F (2014)
Min Temperature 59 °F 51 °F 41 °F (1997)
Cooling Degree Days 1    
Growing Degree Days 16 (Base 50)    
Moisture  
Dew Point 55 °F    
Average Humidity 65    
Maximum Humidity 94    
Minimum Humidity 41    
Precipitation  
Precipitation 0.00 in 0.09 in - ()
Sea Level Pressure  
Sea Level Pressure 29.94 in    
Wind  
Wind Speed 6 mph ()    
Max Wind Speed 15 mph    
Max Gust Speed 18 mph    
Visibility 15.0 miles    
Events      
Averages and records for this station are not official NWS values.
T = Trace of Precipitation, MM = Missing Value Source: Averaged Metar Reports

Daily Weather History Graph

Daily Weather History Graph

Search for Another Location

Airport or City:

Astronomy

May. 26, 2019 Rise Set
Actual Time 5:43 AM EDT 8:47 PM EDT
Civil Twilight 5:09 AM EDT 9:22 PM EDT
Nautical Twilight 4:25 AM EDT 10:06 PM EDT
Astronomical Twilight 3:32 AM EDT 10:59 PM EDT
Moon 2:15 AM EDT (5/26) 12:44 PM EDT (5/26)
Length of Visible Light 16h 13m
Length of Day
15h 04m
Waning Gibbous, 50% of the Moon is Illuminated
May 26
Waning Gibbous
May 26
Last Quarter
Jun 3
New
Jun 10
First Quarter
Jun 17
Full

Hourly Weather History & Observations

Time (EDT) Temp. Dew Point Humidity Pressure Visibility Wind Dir Wind Speed Gust Speed Precip Events Conditions
12:00 AM 66.2 °F 64.4 °F 94% 29.84 in 15.0 mi SSW 8.1 mph - N/A   Clear
1:00 AM 66.2 °F 64.4 °F 94% 29.85 in 15.0 mi WSW 5.8 mph - N/A   Clear
2:00 AM 66 °F 63 °F 87% 29.85 in 15 mi WSW 5.8 mph - -  
2:00 AM 66.2 °F 62.6 °F 88% 29.85 in 15.0 mi WSW 4.6 mph - N/A   Clear
3:00 AM 66.2 °F 62.6 °F 88% 29.87 in 15.0 mi Variable 2.3 mph - N/A   Clear
4:00 AM 64.4 °F 60.8 °F 88% 29.87 in 15.0 mi SSW 8.1 mph - N/A   Clear
5:00 AM 63 °F 60 °F 87% 29.89 in 15 mi NW 4.6 mph - -  
5:00 AM 62.6 °F 60.8 °F 94% 29.88 in 15.0 mi North 3.5 mph - N/A   Scattered Clouds
6:00 AM 62.6 °F 60.8 °F 94% 29.89 in 15.0 mi Variable 4.6 mph - N/A   Mostly Cloudy
8:00 AM 67 °F 57 °F 62% 29.94 in 15 mi NNE 3.5 mph - -   Partly Cloudy
8:00 AM 66.2 °F 57.2 °F 73% 29.94 in 15.0 mi NNE 3.5 mph - N/A   Mostly Cloudy
9:00 AM 66.2 °F 53.6 °F 64% 29.96 in 15.0 mi Variable 2.3 mph - N/A   Mostly Cloudy
10:00 AM 68.0 °F 51.8 °F 56% 29.94 in 15.0 mi West 2.3 mph - N/A   Mostly Cloudy
11:00 AM 71 °F 53 °F 41% 29.95 in 15 mi NW 5.8 mph - -  
11:00 AM 69.8 °F 51.8 °F 53% 29.95 in 15.0 mi WNW 9.2 mph - N/A   Mostly Cloudy
12:00 PM 73.4 °F 51.8 °F 47% 29.95 in 15.0 mi WNW 15.0 mph - N/A   Mostly Cloudy
12:24 PM 71.6 °F 53.6 °F 53% 29.95 in 15.0 mi ENE 12.7 mph - N/A   Mostly Cloudy
2:00 PM 72 °F 55 °F 45% 29.96 in 15 mi NE 6.9 mph - -   Scattered Clouds
3:00 PM 71.6 °F 55.4 °F 57% 29.96 in 15.0 mi NNW 8.1 mph 18.4 mph N/A   Mostly Cloudy
4:00 PM 69.8 °F 53.6 °F 56% 29.96 in 15.0 mi NNE 8.1 mph 18.4 mph N/A   Mostly Cloudy
5:00 PM 70 °F 52 °F 42% 29.97 in 15 mi NNE 9.2 mph - -  
5:00 PM 69.8 °F 51.8 °F 53% 29.97 in 15.0 mi NNE 10.4 mph 18.4 mph N/A   Mostly Cloudy
6:00 PM 68.0 °F 51.8 °F 56% 29.98 in 15.0 mi NNE 8.1 mph 18.4 mph N/A   Mostly Cloudy
7:00 PM 68.0 °F 51.8 °F 56% 29.97 in 15.0 mi NNE 6.9 mph - N/A   Scattered Clouds
8:00 PM 67 °F 50 °F 45% 29.98 in 15 mi NE 11.5 mph - -   Scattered Clouds
8:00 PM 66.2 °F 50.0 °F 56% 29.97 in 15.0 mi NE 10.4 mph 17.3 mph N/A   Partly Cloudy
9:00 PM 62.6 °F 44.6 °F 52% 29.99 in 15.0 mi NE 13.8 mph - N/A   Partly Cloudy
10:00 PM 60.8 °F 46.4 °F 59% 30.00 in 15.0 mi NE 6.9 mph - N/A   Clear
11:00 PM 59 °F 47 °F 56% 30.02 in 15 mi NNE 5.8 mph - -  
11:00 PM 59.0 °F 48.2 °F 67% 30.01 in 15.0 mi NNE 5.8 mph - N/A   Clear